| time (UTC) | temp F | wind direction | speed knots | gust knots | rain 1hr in | rain 24hr in | rain mn in | humidity % | barometer mb |
| 20260502163334 | 72 | 288 | 7.8 | 18.2 | 0.00 | 0.00 | 0.00 | 31 | 1014.1 |
| 20260502162334 | 72 | 271 | 7.8 | 20.0 | 0.00 | 0.00 | 0.00 | 30 | 1014.1 |
| 20260502161335 | 73 | 223 | 6.1 | 15.6 | 0.00 | 0.00 | 0.00 | 30 | 1014.4 |
| 20260502160331 | 73 | 240 | 8.7 | 18.2 | 0.00 | 0.00 | 0.00 | 29 | 1014.4 |
| 20260502152331 | 74 | 206 | 7.8 | 19.1 | 0.00 | 0.00 | 0.00 | 28 | 1015.0 |
| 20260502151331 | 74 | 208 | 7.8 | 16.5 | 0.00 | 0.00 | 0.00 | 27 | 1015.0 |
| 20260502150332 | 75 | 181 | 7.0 | 15.6 | 0.00 | 0.00 | 0.00 | 27 | 1015.0 |
| 20260502130310 | 73 | 157 | 9.6 | 19.1 | 0.00 | 0.00 | 0.00 | 30 | 1016.7 |
| 20260502123307 | 74 | 210 | 6.1 | 13.0 | 0.00 | 0.00 | 0.00 | 32 | 1017.2 |
| 20260502122309 | 73 | 275 | 8.7 | 21.7 | 0.00 | 0.00 | 0.00 | 34 | 1017.2 |
| 20260502121306 | 73 | 211 | 8.7 | 20.0 | 0.00 | 0.00 | 0.00 | 32 | 1017.3 |
| 20260502120309 | 74 | 185 | 5.2 | 13.0 | 0.00 | 0.00 | 0.00 | 32 | 1017.8 |
| 20260502115308 | 73 | 270 | 7.8 | 15.6 | 0.00 | 0.00 | 0.00 | 33 | 1017.8 |
| 20260502114306 | 73 | 251 | 7.8 | 16.5 | 0.00 | 0.00 | 0.00 | 32 | 1017.9 |
| 20260502113309 | 72 | 211 | 7.0 | 16.5 | 0.00 | 0.00 | 0.00 | 35 | 1018.1 |
| 20260502112307 | 71 | 225 | 7.0 | 16.5 | 0.00 | 0.00 | 0.00 | 35 | 1018.1 |
| 20260502111309 | 71 | 259 | 7.8 | 19.1 | 0.00 | 0.00 | 0.00 | 37 | 1018.3 |
| 20260502110306 | 71 | 224 | 7.0 | 13.9 | 0.00 | 0.00 | 0.00 | 36 | 1018.5 |
| 20260502105306 | 71 | 250 | 6.1 | 21.7 | 0.00 | 0.00 | 0.00 | 35 | 1018.5 |
| 20260502104308 | 70 | 235 | 8.7 | 20.0 | 0.00 | 0.00 | 0.00 | 36 | 1018.8 |
| 20260502103304 | 70 | 274 | 7.0 | 19.1 | 0.00 | 0.00 | 0.00 | 35 | 1019.1 |
| 20260502102306 | 70 | 269 | 6.1 | 13.0 | 0.00 | 0.00 | 0.00 | 36 | 1019.1 |
| 20260502101304 | 69 | 262 | 7.0 | 13.9 | 0.00 | 0.00 | 0.00 | 37 | 1019.2 |
| 20260502100305 | 69 | 195 | 6.1 | 16.5 | 0.00 | 0.00 | 0.00 | 40 | 1019.6 |
| 20260502091253 | 67 | 214 | 6.1 | 15.6 | 0.00 | 0.00 | 0.00 | 41 | 1019.8 |
| 20260502090255 | 67 | 224 | 6.1 | 16.5 | 0.00 | 0.00 | 0.00 | 41 | 1019.9 |
| 20260502071238 | 59 | 254 | 5.2 | 11.3 | 0.00 | 0.00 | 0.00 | 54 | 1020.7 |
| 20260502070232 | 59 | 218 | 3.5 | 8.7 | 0.00 | 0.00 | 0.00 | 55 | 1020.7 |
| 20260502065234 | 58 | 254 | 3.5 | 7.8 | 0.00 | 0.00 | 0.00 | 57 | 1020.7 |
| 20260502064232 | 57 | 171 | 2.6 | 6.1 | 0.00 | 0.00 | 0.00 | 57 | 1020.7 |
| 20260502063233 | 56 | 242 | 4.3 | 8.7 | 0.00 | 0.00 | 0.00 | 59 | 1020.7 |
| 20260502062229 | 55 | 218 | 3.5 | 7.0 | 0.00 | 0.00 | 0.00 | 59 | 1020.9 |
| 20260502061232 | 54 | 222 | 3.5 | 7.8 | 0.00 | 0.00 | 0.00 | 60 | 1020.8 |
| 20260502060236 | 53 | 256 | 4.3 | 7.8 | 0.00 | 0.00 | 0.00 | 61 | 1020.9 |
| 20260502055228 | 53 | 211 | 3.5 | 7.8 | 0.00 | 0.00 | 0.00 | 62 | 1020.9 |
| 20260502054223 | 52 | 240 | 4.3 | 7.0 | 0.00 | 0.00 | 0.00 | 63 | 1020.9 |
| 20260502053221 | 51 | 255 | 4.3 | 8.7 | 0.00 | 0.00 | 0.00 | 64 | 1020.7 |
| 20260502052222 | 50 | 245 | 3.5 | 6.1 | 0.00 | 0.00 | 0.00 | 65 | 1020.9 |
| 20260502051222 | 49 | 234 | 4.3 | 7.8 | 0.00 | 0.00 | 0.00 | 66 | 1020.8 |
| 20260502050226 | 48 | 247 | 2.6 | 7.0 | 0.00 | 0.00 | 0.00 | 70 | 1021.0 |
| 20260502045226 | 47 | 219 | 2.6 | 6.1 | 0.00 | 0.00 | 0.00 | 72 | 1021.0 |
| 20260502044221 | 45 | 240 | 1.7 | 4.3 | 0.00 | 0.00 | 0.00 | 74 | 1020.9 |
| 20260502043222 | 45 | 225 | 2.6 | 5.2 | 0.00 | 0.00 | 0.00 | 74 | 1020.8 |
| 20260502042219 | 44 | 221 | 1.7 | 5.2 | 0.00 | 0.00 | 0.00 | 75 | 1020.7 |
| 20260502041219 | 44 | 219 | 2.6 | 4.3 | 0.00 | 0.00 | 0.00 | 74 | 1020.7 |
| 20260502040216 | 44 | 238 | 2.6 | 5.2 | 0.00 | 0.00 | 0.00 | 73 | 1020.9 |
| 20260502035218 | 44 | 229 | 2.6 | 5.2 | 0.00 | 0.00 | 0.00 | 74 | 1020.9 |
| 20260502034219 | 43 | 202 | 2.6 | 7.0 | 0.00 | 0.00 | 0.00 | 74 | 1020.9 |
| 20260502033213 | 43 | 240 | 2.6 | 5.2 | 0.00 | 0.00 | 0.00 | 74 | 1020.8 |
| 20260502032215 | 43 | 218 | 1.7 | 5.2 | 0.00 | 0.00 | 0.00 | 73 | 1021.1 |
| 20260502031210 | 44 | 224 | 2.6 | 7.0 | 0.00 | 0.00 | 0.00 | 73 | 1021.1 |
| 20260502030213 | 44 | 256 | 1.7 | 5.2 | 0.00 | 0.00 | 0.00 | 73 | 1021.1 |
| 20260502025212 | 43 | 187 | 1.7 | 4.3 | 0.00 | 0.00 | 0.00 | 73 | 1021.3 |
| 20260502024206 | 43 | 229 | 1.7 | 5.2 | 0.00 | 0.00 | 0.00 | 73 | 1021.3 |
| 20260502023208 | 43 | 235 | 2.6 | 5.2 | 0.00 | 0.00 | 0.00 | 73 | 1021.3 |
| 20260502022207 | 43 | 212 | 1.7 | 4.3 | 0.00 | 0.00 | 0.00 | 73 | 1021.3 |
| 20260502020208 | 44 | 222 | 2.6 | 6.1 | 0.00 | 0.00 | 0.00 | 71 | 1021.6 |
| 20260502015206 | 44 | 239 | 2.6 | 5.2 | 0.00 | 0.00 | 0.00 | 71 | 1021.8 |
| 20260502014206 | 44 | 234 | 2.6 | 5.2 | 0.00 | 0.00 | 0.00 | 72 | 1021.8 |
| 20260502013205 | 44 | 220 | 1.7 | 5.2 | 0.00 | 0.00 | 0.00 | 72 | 1021.8 |
| 20260502012206 | 44 | 213 | 1.7 | 4.3 | 0.00 | 0.00 | 0.00 | 74 | 1022.0 |
| 20260502011205 | 44 | 216 | 2.6 | 6.1 | 0.00 | 0.00 | 0.00 | 74 | 1022.0 |
| 20260502010206 | 43 | 229 | 1.7 | 5.2 | 0.00 | 0.00 | 0.00 | 74 | 1022.0 |
| 20260502005206 | 43 | 261 | 0.0 | 4.3 | 0.00 | 0.00 | 0.00 | 75 | 1022.2 |
| 20260502004205 | 43 | 263 | 0.0 | 0.0 | 0.00 | 0.00 | 0.00 | 75 | 1022.2 |
| 20260502003146 | 42 | 263 | 0.0 | 0.9 | 0.00 | 0.00 | 0.00 | 75 | 1022.3 |
| 20260502002139 | 42 | 263 | 0.0 | 0.0 | 0.00 | 0.00 | 0.00 | 74 | 1022.4 |
| 20260502001133 | 43 | 263 | 0.0 | 2.6 | 0.00 | 0.00 | 0.00 | 74 | 1022.4 |
| 20260502000132 | 43 | 263 | 0.0 | 0.0 | 0.00 | 0.00 | 0.00 | 73 | 1022.5 |
| 20260501235132 | 43 | 263 | 0.0 | 0.9 | 0.00 | 0.00 | 0.00 | 73 | 1022.8 |
| 20260501234122 | 43 | 263 | 0.0 | 1.7 | 0.00 | 0.00 | 0.00 | 73 | 1022.8 |
| 20260501233122 | 43 | 263 | 0.0 | 0.0 | 0.00 | 0.00 | 0.00 | 73 | 1023.0 |
| 20260501232109 | 43 | 263 | 0.9 | 2.6 | 0.00 | 0.00 | 0.00 | 72 | 1023.0 |
| 20260501231112 | 43 | 263 | 0.9 | 3.5 | 0.00 | 0.00 | 0.00 | 72 | 1023.0 |
| 20260501230110 | 44 | 264 | 0.9 | 3.5 | 0.00 | 0.00 | 0.00 | 71 | 1023.1 |
| 20260501225107 | 44 | 234 | 0.9 | 3.5 | 0.00 | 0.00 | 0.00 | 71 | 1023.2 |
| 20260501224109 | 44 | 231 | 0.0 | 1.7 | 0.00 | 0.00 | 0.00 | 70 | 1023.2 |
| 20260501223106 | 45 | 231 | 0.9 | 1.7 | 0.00 | 0.00 | 0.00 | 69 | 1023.3 |
| 20260501222110 | 45 | 231 | 0.9 | 3.5 | 0.00 | 0.00 | 0.00 | 67 | 1023.3 |
| 20260501221106 | 46 | 228 | 1.7 | 3.5 | 0.00 | 0.00 | 0.00 | 67 | 1023.4 |
| 20260501220106 | 46 | 239 | 0.9 | 3.5 | 0.00 | 0.00 | 0.00 | 66 | 1023.5 |
| 20260501215109 | 47 | 238 | 1.7 | 4.3 | 0.00 | 0.00 | 0.00 | 65 | 1023.6 |
| 20260501214035 | 47 | 255 | 1.7 | 3.5 | 0.00 | 0.00 | 0.00 | 63 | 1023.7 |
| 20260501213038 | 49 | 257 | 0.9 | 2.6 | 0.00 | 0.00 | 0.00 | 59 | 1023.8 |
| 20260501212035 | 50 | 258 | 2.6 | 5.2 | 0.00 | 0.00 | 0.00 | 58 | 1023.7 |
| 20260501211037 | 51 | 223 | 3.5 | 6.1 | 0.00 | 0.00 | 0.00 | 57 | 1023.7 |
| 20260501210034 | 51 | 217 | 3.5 | 5.2 | 0.00 | 0.00 | 0.00 | 58 | 1023.8 |
| 20260501205034 | 50 | 229 | 2.6 | 4.3 | 0.00 | 0.00 | 0.00 | 59 | 1023.8 |
| 20260501204035 | 51 | 207 | 1.7 | 4.3 | 0.00 | 0.00 | 0.00 | 58 | 1023.8 |
| 20260501203034 | 52 | 258 | 1.7 | 4.3 | 0.00 | 0.00 | 0.00 | 57 | 1024.0 |
| 20260501202034 | 52 | 261 | 1.7 | 5.2 | 0.00 | 0.00 | 0.00 | 56 | 1024.0 |
| 20260501201032 | 53 | 243 | 1.7 | 4.3 | 0.00 | 0.00 | 0.00 | 54 | 1024.1 |
| 20260501200032 | 53 | 221 | 1.7 | 5.2 | 0.00 | 0.00 | 0.00 | 53 | 1024.1 |
| 20260501195034 | 55 | 260 | 1.7 | 5.2 | 0.00 | 0.00 | 0.00 | 50 | 1024.2 |
| 20260501194036 | 56 | 256 | 2.6 | 6.1 | 0.00 | 0.00 | 0.00 | 49 | 1024.3 |
| 20260501193033 | 56 | 238 | 2.6 | 5.2 | 0.00 | 0.00 | 0.00 | 50 | 1024.4 |
| 20260501192037 | 57 | 268 | 0.9 | 3.5 | 0.00 | 0.00 | 0.00 | 50 | 1024.3 |
| 20260501191034 | 58 | 244 | 1.7 | 4.3 | 0.00 | 0.00 | 0.00 | 46 | 1024.4 |
| 20260501190034 | 59 | 244 | 0.9 | 4.3 | 0.00 | 0.00 | 0.00 | 43 | 1024.5 |
| 20260501185032 | 60 | 256 | 1.7 | 5.2 | 0.00 | 0.00 | 0.00 | 43 | 1024.3 |
| 20260501184031 | 61 | 276 | 0.9 | 3.5 | 0.00 | 0.00 | 0.00 | 42 | 1024.4 |
| 20260501183034 | 62 | 277 | 0.9 | 3.5 | 0.00 | 0.00 | 0.00 | 40 | 1024.5 |
| 20260501182047 | 64 | 279 | 0.0 | 1.7 | 0.00 | 0.00 | 0.00 | 38 | 1024.5 |
| 20260501181036 | 65 | 320 | 0.0 | 3.5 | 0.00 | 0.00 | 0.00 | 36 | 1024.6 |
| 20260501180045 | 66 | 281 | 1.7 | 4.3 | 0.00 | 0.00 | 0.00 | 34 | 1024.5 |
| 20260501175047 | 67 | 327 | 1.7 | 6.1 | 0.00 | 0.00 | 0.00 | 33 | 1024.4 |
| 20260501174034 | 67 | 296 | 1.7 | 6.1 | 0.00 | 0.00 | 0.00 | 32 | 1024.4 |
| 20260501173037 | 68 | 297 | 2.6 | 7.8 | 0.00 | 0.00 | 0.00 | 30 | 1024.6 |
| 20260501172031 | 69 | 302 | 3.5 | 8.7 | 0.00 | 0.00 | 0.00 | 29 | 1024.7 |
| 20260501171034 | 69 | 327 | 2.6 | 7.0 | 0.00 | 0.00 | 0.00 | 28 | 1024.8 |
| 20260501170036 | 70 | 304 | 3.5 | 8.7 | 0.00 | 0.00 | 0.00 | 27 | 1024.9 |
| 20260501165036 | 71 | 297 | 4.3 | 7.8 | 0.00 | 0.00 | 0.00 | 27 | 1024.9 |
| 20260501164032 | 71 | 308 | 3.5 | 7.8 | 0.00 | 0.00 | 0.00 | 27 | 1025.0 |